Hourly Data Report for August 20, 2018

TORONTO CITY
ONTARIO
Current Station Operator: ECCC - MSC

43°40'00.000" N
79°24'00.000" W
112.50 m
6158355
71508
XTO

Download Data

Hourly Data (August 2018)
Hourly Data Report for August 20, 2018
TIME
LST
Temp Definition
°C
Dew Point Definition
°C
Rel Hum Definition
%
Precip. Amount Definition
mm

Wind Dir Definition
10's deg

Wind Spd Definition
km/h
Visibility Definition
km
Stn Press Definition
kPa
Hmdx Definition


Wind Chill Definition


Weather Definition


00:00 20.9 16.5 76 0.0 LegendMM LegendMM   100.48 26   LegendNANA
01:00 21.9 17.8 78 0.0 LegendMM LegendMM   100.43 28   LegendNANA
02:00 21.1 18.0 82 0.0 LegendMM LegendMM   100.43 27   LegendNANA
03:00 20.6 17.3 82 0.0 LegendMM LegendMM   100.45 26   LegendNANA
04:00 20.2 16.9 82 0.0 LegendMM LegendMM   100.47 25   LegendNANA
05:00 20.3 17.4 84 0.0 LegendMM LegendMM   100.49 26   LegendNANA
06:00 20.0 16.9 82 0.0 LegendMM LegendMM   100.53 25   LegendNANA
07:00 20.8 17.5 81 0.0 LegendMM LegendMM   100.54 26   LegendNANA
08:00 22.2 18.4 79 0.0 LegendMM LegendMM   100.55 29   LegendNANA
09:00 22.8 17.8 73 0.0 LegendMM LegendMM   100.53 29   LegendNANA
10:00 23.4 17.5 69 0.0 LegendMM LegendMM   100.53 29   LegendNANA
11:00 24.9 18.0 65 0.0 LegendMM LegendMM   100.52 31   LegendNANA
12:00 24.0 16.4 62 0.0 LegendMM LegendMM   100.48 29   LegendNANA
13:00 24.1 16.3 62 0.0 LegendMM LegendMM   100.46 29   LegendNANA
14:00 24.5 16.8 62 0.0 LegendMM LegendMM   100.41 30   LegendNANA
15:00 24.0 17.9 69 0.0 LegendMM LegendMM   100.36 30   LegendNANA
16:00 24.0 18.0 69 0.0 LegendMM LegendMM   100.32 30   LegendNANA
17:00 23.8 17.7 69 0.0 LegendMM LegendMM   100.33 30   LegendNANA
18:00 23.8 17.9 70 0.0 LegendMM LegendMM   100.29 30   LegendNANA
19:00 23.8 18.2 71 0.0 LegendMM LegendMM   100.29 30   LegendNANA
20:00 23.6 18.9 75 0.0 LegendMM LegendMM   100.27 30   LegendNANA
21:00 23.6 19.3 77 0.0 LegendMM LegendMM   100.27 31   LegendNANA
22:00 23.7 18.5 73 0.0 LegendMM LegendMM   100.22 30   LegendNANA
23:00 23.1 18.3 74 0.0 LegendMM LegendMM   100.20 29   LegendNANA

Notes on Data Quality.

Legend

  • E = Estimated
  • M = Missing
  • NA = Not Available*
  • [empty] = Indicates an unobserved value
Date modified: